CW7324 Weather Reports


Display with metric or nautical units.
time (UTC)temp
F
wind
direction
speed
MPH
gust
MPH
rain 1hr
in
rain 24hr
in
rain mn
in
humidity
%
barometer
mb
20260507000038 58 144 2.0 5.0 0.01 0.22 0.22 93 1003.7
20260506235550 58 164 3.0 6.0 0.00 0.25 0.21 92 1003.7
20260506235033 58 145 1.0 6.0 0.00 0.25 0.21 92 1003.7
20260506234533 58 198 3.0 7.0 0.00 0.25 0.21 92 1003.6
20260506234033 58 135 2.0 8.0 0.00 0.25 0.21 92 1003.5
20260506233542 58 169 4.0 8.0 0.00 0.25 0.21 92 1003.6
20260506233036 59 180 4.0 7.0 0.00 0.25 0.21 91 1003.6
20260506232545 59 162 2.0 7.0 0.00 0.25 0.21 92 1003.6
20260506232034 59 186 3.0 8.0 0.00 0.25 0.21 91 1003.6
20260506231523 59 148 2.0 8.0 0.00 0.25 0.21 91 1003.5
20260506231034 59 165 5.0 11.0 0.00 0.25 0.21 91 1003.6
20260506230549 59 127 4.0 11.0 0.00 0.25 0.21 92 1003.5
20260506230033 59 173 3.0 9.0 0.00 0.25 0.21 92 1003.5
20260506225525 59 171 3.0 9.0 0.00 0.27 0.21 91 1003.5
20260506225042 59 154 4.0 8.0 0.00 0.27 0.21 91 1003.4
20260506224550 59 108 2.0 9.0 0.00 0.27 0.21 91 1003.5
20260506224030 60 103 3.0 11.0 0.00 0.27 0.21 91 1003.5
20260506223549 60 186 5.0 11.0 0.00 0.27 0.21 91 1003.6
20260506223033 60 137 2.0 9.0 0.00 0.27 0.21 92 1003.5
20260506222537 60 147 3.0 9.0 0.00 0.27 0.21 92 1003.6
20260506222033 60 222 2.0 8.0 0.00 0.27 0.21 92 1003.6
20260506221608 60 120 3.0 8.0 0.00 0.27 0.21 91 1003.5
20260506221036 60 159 3.0 8.0 0.00 0.27 0.21 92 1003.6
20260506220534 60 190 2.0 9.0 0.00 0.27 0.21 91 1003.7
20260506220044 60 184 3.0 9.0 0.00 0.27 0.21 91 1003.6
20260506215539 60 78 1.0 8.0 0.00 0.27 0.21 91 1003.6
20260506215032 60 200 3.0 10.0 0.00 0.27 0.21 91 1003.7
20260506214548 60 184 4.0 11.0 0.00 0.27 0.21 91 1003.6
20260506214038 60 204 5.0 11.0 0.00 0.27 0.21 90 1003.6
20260506213534 61 153 2.0 13.0 0.00 0.27 0.21 91 1003.6
20260506213032 61 167 4.0 13.0 0.01 0.27 0.21 90 1003.6
20260506212548 61 146 5.0 12.0 0.01 0.27 0.21 90 1003.6
20260506212033 61 134 6.0 11.0 0.01 0.27 0.21 90 1003.7
20260506211531 61 244 2.0 9.0 0.01 0.27 0.21 90 1003.8
20260506211026 61 167 5.0 10.0 0.01 0.27 0.21 90 1003.8
20260506210529 61 199 5.0 12.0 0.01 0.27 0.21 91 1003.8
20260506210033 61 164 6.0 11.0 0.01 0.27 0.21 90 1003.8
20260506205534 61 190 4.0 9.0 0.01 0.27 0.21 91 1003.9
20260506205059 61 164 6.0 13.0 0.02 0.27 0.21 90 1003.8
20260506204535 61 126 3.0 10.0 0.02 0.27 0.21 91 1003.9
20260506204059 61 173 5.0 8.0 0.03 0.27 0.21 90 1003.9
20260506203542 61 170 6.0 12.0 0.04 0.27 0.21 91 1003.9
20260506203055 61 134 6.0 12.0 0.04 0.26 0.20 91 1004.0
20260506202523 60 161 4.0 10.0 0.05 0.26 0.20 91 1004.1
20260506202038 61 120 4.0 8.0 0.06 0.26 0.20 92 1004.1
20260506201523 61 145 2.0 7.0 0.07 0.26 0.20 90 1004.2
20260506201032 61 108 1.0 7.0 0.07 0.26 0.20 92 1004.3
20260506200554 60 171 0.0 7.0 0.07 0.26 0.20 92 1004.3
20260506200025 60 159 0.0 4.0 0.08 0.26 0.20 91 1004.3
20260506195545 60 159 1.0 4.0 0.08 0.26 0.20 92 1004.4
20260506195034 60 148 2.0 4.0 0.08 0.25 0.19 92 1004.5
20260506194534 60 99 3.0 5.0 0.07 0.24 0.18 91 1004.7
20260506194032 60 240 1.0 7.0 0.08 0.24 0.18 91 1004.7
20260506193531 60 130 1.0 5.0 0.07 0.23 0.17 92 1004.7
20260506193049 60 155 3.0 6.0 0.06 0.22 0.16 91 1004.6
20260506192525 60 157 2.0 6.0 0.05 0.21 0.15 90 1004.7
20260506192041 60 150 2.0 4.0 0.04 0.20 0.14 90 1004.8
20260506191541 60 88 0.0 5.0 0.04 0.19 0.13 91 1004.7
20260506191035 60 130 3.0 6.0 0.04 0.19 0.13 91 1004.8
20260506190603 60 159 3.0 9.0 0.04 0.19 0.13 91 1004.9
20260506190032 60 188 3.0 14.0 0.04 0.18 0.12 90 1005.1
20260506185535 60 138 3.0 11.0 0.05 0.18 0.12 90 1005.2
20260506185023 60 160 2.0 7.0 0.05 0.17 0.11 91 1005.3
20260506184551 60 159 4.0 8.0 0.05 0.17 0.11 90 1005.3
20260506184028 60 133 2.0 8.0 0.05 0.16 0.10 90 1005.3
20260506183538 60 148 2.0 8.0 0.06 0.16 0.10 92 1005.5
20260506183025 60 145 4.0 8.0 0.06 0.16 0.10 89 1005.6
20260506182542 60 148 3.0 7.0 0.07 0.16 0.10 90 1005.7
20260506182028 60 121 4.0 10.0 0.08 0.16 0.10 90 1005.7
20260506181605 61 169 5.0 8.0 0.07 0.15 0.09 90 1005.8
20260506181034 61 149 3.0 8.0 0.08 0.15 0.09 89 1005.8
20260506180534 60 169 2.0 7.0 0.07 0.14 0.08 91 1005.9
20260506180031 60 157 4.0 7.0 0.08 0.14 0.08 90 1006.1
20260506175546 61 175 4.0 8.0 0.07 0.13 0.07 89 1006.1
20260506175033 61 123 2.0 7.0 0.06 0.12 0.06 89 1006.1
20260506174525 60 230 2.0 7.0 0.05 0.11 0.05 91 1006.1
20260506174040 61 171 4.0 7.0 0.05 0.11 0.05 88 1006.2
20260506173546 61 207 3.0 6.0 0.04 0.10 0.04 88 1006.1
20260506173025 61 182 1.0 8.0 0.04 0.10 0.04 90 1006.2
20260506172523 61 154 3.0 8.0 0.03 0.09 0.03 87 1006.1
20260506172033 61 113 2.0 7.0 0.02 0.08 0.02 89 1006.1
20260506171553 61 165 2.0 7.0 0.02 0.08 0.02 89 1006.1
20260506171022 62 180 3.0 7.0 0.01 0.07 0.01 86 1006.1
20260506170547 63 184 2.0 7.0 0.01 0.07 0.01 83 1006.1
20260506170036 63 229 4.0 10.0 0.00 0.06 0.00 82 1006.0
20260506165552 64 194 3.0 11.0 0.00 0.06 0.00 77 1005.9
20260506165038 64 171 4.0 13.0 0.00 0.06 0.00 81 1005.9
20260506164529 64 119 3.0 13.0 0.00 0.06 0.00 80 1006.0
20260506164040 65 243 3.0 9.0 0.00 0.06 0.00 77 1006.0
20260506163527 65 153 3.0 13.0 0.00 0.06 0.00 75 1006.0
20260506163057 66 193 6.0 13.0 0.00 0.06 0.00 74 1006.0
20260506162554 66 154 3.0 7.0 0.00 0.06 0.00 76 1006.1
20260506162042 66 134 1.0 8.0 0.00 0.06 0.00 75 1006.2
20260506161546 66 175 4.0 8.0 0.00 0.06 0.00 75 1006.2
20260506161023 65 173 2.0 5.0 0.00 0.06 0.00 75 1006.3
20260506160551 65 120 2.0 4.0 0.00 0.06 0.00 76 1006.4
20260506160049 65 196 1.0 4.0 0.00 0.06 0.00 77 1006.6
20260506155525 65 130 1.0 4.0 0.00 0.06 0.00 79 1006.7
20260506155039 64 192 1.0 3.0 0.00 0.06 0.00 81 1006.8
20260506154611 64 192 2.0 4.0 0.00 0.06 0.00 77 1007.0
20260506154030 64 149 2.0 4.0 0.00 0.06 0.00 77 1007.3
20260506153533 64 122 1.0 7.0 0.00 0.06 0.00 78 1007.4
20260506153030 64 169 2.0 7.0 0.00 0.06 0.00 76 1007.5
20260506152528 64 167 2.0 4.0 0.00 0.06 0.00 75 1007.4
20260506152038 64 181 2.0 4.0 0.00 0.06 0.00 76 1007.4
20260506151531 64 235 0.0 3.0 0.00 0.06 0.00 78 1007.4
20260506151030 64 162 1.0 7.0 0.00 0.06 0.00 76 1007.4
20260506150530 64 170 2.0 7.0 0.00 0.06 0.00 76 1007.5
20260506150022 64 162 2.0 7.0 0.00 0.06 0.00 78 1007.5
20260506145542 64 134 2.0 8.0 0.00 0.06 0.00 76 1007.3
20260506145030 64 138 4.0 8.0 0.00 0.06 0.00 75 1007.3
20260506144531 64 190 4.0 9.0 0.00 0.06 0.00 75 1007.3
20260506144026 64 130 3.0 11.0 0.00 0.06 0.00 77 1007.4
20260506143548 64 144 3.0 11.0 0.00 0.06 0.00 77 1007.5
20260506143037 64 165 3.0 6.0 0.00 0.06 0.00 76 1007.5
20260506142535 64 119 2.0 5.0 0.00 0.06 0.00 79 1007.3
20260506142038 63 138 3.0 5.0 0.00 0.06 0.00 76 1007.3
20260506141544 63 130 2.0 4.0 0.00 0.06 0.00 77 1007.3
20260506141026 63 165 3.0 5.0 0.00 0.06 0.00 78 1007.3
20260506140531 62 143 1.0 5.0 0.00 0.06 0.00 79 1007.4
20260506135539 62 150 4.0 6.0 0.00 0.06 0.00 79 1007.2
20260506135105 61 164 0.0 4.0 0.00 0.06 0.00 82 1007.2
20260506134547 61 119 2.0 4.0 0.00 0.06 0.00 80 1007.2
20260506134037 61 105 0.0 3.0 0.00 0.06 0.00 81 1007.5
20260506133529 61 141 0.0 2.0 0.00 0.06 0.00 81 1007.6
20260506133040 61 196 1.0 4.0 0.00 0.06 0.00 81 1007.7
20260506132537 60 180 1.0 5.0 0.00 0.06 0.00 82 1008.0
20260506132026 60 203 2.0 5.0 0.00 0.06 0.00 80 1008.0
20260506131546 60 238 1.0 5.0 0.00 0.06 0.00 80 1008.0
20260506131036 60 232 1.0 5.0 0.00 0.06 0.00 81 1007.9
20260506130529 60 142 0.0 3.0 0.00 0.06 0.00 81 1007.8
20260506130025 60 163 1.0 6.0 0.00 0.06 0.00 80 1007.6
20260506125537 60 179 2.0 6.0 0.00 0.06 0.00 80 1007.6
20260506125038 60 159 3.0 9.0 0.00 0.06 0.00 80 1007.8
20260506124611 60 142 2.0 9.0 0.00 0.06 0.00 80 1008.0
20260506124039 60 192 0.0 2.0 0.00 0.06 0.00 80 1008.0
20260506123529 60 107 1.0 5.0 0.00 0.06 0.00 80 1007.7
20260506123058 60 116 3.0 5.0 0.00 0.06 0.00 80 1007.7
20260506122548 60 213 1.0 4.0 0.00 0.06 0.00 80 1007.7
20260506122032 60 192 0.0 4.0 0.00 0.06 0.00 82 1007.7
20260506121544 60 236 3.0 4.0 0.00 0.06 0.00 80 1007.8
20260506121029 59 130 1.0 4.0 0.00 0.06 0.00 81 1007.8
20260506120532 59 198 2.0 4.0 0.00 0.06 0.00 81 1007.9
20260506120026 59 167 0.0 4.0 0.00 0.06 0.00 80 1008.1
20260506115523 59 165 1.0 4.0 0.00 0.06 0.00 80 1008.0
20260506115059 59 168 1.0 7.0 0.00 0.06 0.00 81 1008.1
20260506114547 59 200 1.0 7.0 0.00 0.06 0.00 82 1008.1
20260506114034 59 151 1.0 5.0 0.00 0.06 0.00 80 1008.0
20260506113553 59 172 3.0 5.0 0.00 0.06 0.00 81 1008.0
20260506113031 58 168 0.0 3.0 0.00 0.06 0.00 82 1008.2
20260506112528 58 121 2.0 5.0 0.00 0.06 0.00 84 1008.1
20260506112041 57 115 2.0 5.0 0.00 0.06 0.00 85 1008.1
20260506111525 58 87 0.0 0.0 0.00 0.06 0.00 83 1008.1
20260506111034 58 136 0.0 2.0 0.00 0.06 0.00 81 1008.1
20260506110546 57 136 0.0 3.0 0.00 0.06 0.00 82 1008.0
20260506110049 57 127 0.0 3.0 0.00 0.06 0.00 84 1008.0
20260506105522 57 130 0.0 2.0 0.00 0.06 0.00 84 1008.2
20260506105040 57 126 1.0 2.0 0.00 0.06 0.00 84 1008.1
20260506104537 58 163 0.0 4.0 0.00 0.06 0.00 80 1008.2
20260506104030 58 155 1.0 4.0 0.00 0.06 0.00 80 1008.3
20260506103549 57 161 1.0 4.0 0.00 0.06 0.00 82 1008.3
20260506103029 57 182 2.0 4.0 0.00 0.06 0.00 83 1008.0
20260506102556 56 155 2.0 4.0 0.00 0.06 0.00 86 1008.3
20260506102038 55 175 1.0 4.0 0.00 0.06 0.00 87 1008.4
20260506101527 55 204 1.0 4.0 0.00 0.06 0.00 86 1008.1
20260506101040 55 182 1.0 4.0 0.00 0.06 0.00 85 1008.0
20260506100552 55 173 1.0 2.0 0.00 0.06 0.00 87 1008.0
20260506100032 54 169 0.0 0.0 0.00 0.06 0.00 88 1008.1
20260506095528 55 193 0.0 2.0 0.00 0.06 0.00 87 1008.0
20260506095027 55 192 1.0 2.0 0.00 0.06 0.00 89 1008.0
20260506094527 54 141 0.0 2.0 0.00 0.06 0.00 87 1007.7
20260506094059 55 121 0.0 2.0 0.00 0.06 0.00 86 1007.6
20260506093548 55 220 0.0 1.0 0.00 0.06 0.00 87 1007.9
20260506093026 55 205 0.0 3.0 0.00 0.06 0.00 87 1008.0
20260506092545 55 203 0.0 3.0 0.00 0.06 0.00 86 1007.8
20260506092046 55 165 1.0 3.0 0.00 0.06 0.00 87 1007.7
20260506091525 55 163 0.0 4.0 0.00 0.06 0.00 86 1007.8
20260506091059 55 199 2.0 4.0 0.00 0.06 0.00 87 1007.9
20260506090525 55 199 2.0 4.0 0.00 0.06 0.00 88 1007.8
20260506090029 55 169 1.0 3.0 0.00 0.06 0.00 88 1007.8
20260506085543 55 184 1.0 3.0 0.00 0.06 0.00 88 1007.9
20260506085029 55 216 1.0 4.0 0.00 0.06 0.00 88 1007.8
20260506084549 55 179 2.0 6.0 0.00 0.06 0.00 89 1007.9
20260506084030 55 173 2.0 6.0 0.00 0.06 0.00 88 1008.0
20260506083530 55 194 2.0 5.0 0.00 0.06 0.00 88 1008.0
20260506083053 55 184 2.0 4.0 0.00 0.06 0.00 87 1008.0
20260506082525 56 163 2.0 4.0 0.00 0.06 0.00 86 1008.1
20260506082037 56 207 1.0 5.0 0.00 0.06 0.00 86 1008.2
20260506081548 57 163 3.0 5.0 0.00 0.06 0.00 85 1008.1
20260506081037 57 147 3.0 5.0 0.00 0.06 0.00 83 1008.1
20260506080543 57 178 2.0 5.0 0.00 0.06 0.00 83 1008.1
20260506073035 58 176 2.0 5.0 0.00 0.06 0.00 82 1008.0
20260506072531 58 164 1.0 5.0 0.00 0.06 0.00 83 1008.0
20260506072053 59 157 2.0 5.0 0.00 0.06 0.00 80 1007.8
20260506071553 58 145 2.0 5.0 0.00 0.06 0.00 80 1007.8
20260506071040 60 142 2.0 5.0 0.00 0.06 0.00 77 1007.9
20260506070530 59 158 2.0 4.0 0.00 0.06 0.00 77 1008.0
20260506062028 61 155 2.0 6.0 0.00 0.06 0.00 75 1007.6
20260506061548 60 177 3.0 6.0 0.00 0.06 0.00 77 1007.6
20260506061032 61 172 2.0 8.0 0.00 0.06 0.00 77 1007.6
20260506060535 60 171 2.0 10.0 0.00 0.06 0.00 78 1007.5
20260506051030 62 174 2.0 7.0 0.00 0.06 0.00 76 1007.5
20260506050525 62 173 2.0 7.0 0.00 0.06 0.00 75 1007.7
20260506045053 62 164 3.0 8.0 0.00 0.06 0.06 76 1007.6
20260506044541 63 155 4.0 9.0 0.00 0.06 0.06 75 1007.7
20260506044033 62 175 3.0 9.0 0.00 0.06 0.06 76 1007.6
20260506043521 63 134 3.0 7.0 0.00 0.06 0.06 76 1007.6
20260506043029 62 188 2.0 9.0 0.00 0.06 0.06 79 1007.7
20260506042552 63 116 2.0 8.0 0.00 0.06 0.06 77 1007.6
20260506042051 62 151 3.0 7.0 0.00 0.06 0.06 80 1007.6
20260506041528 62 121 3.0 6.0 0.00 0.06 0.06 81 1007.7
20260506041046 62 251 3.0 7.0 0.00 0.06 0.06 80 1007.6
20260506040533 61 176 2.0 7.0 0.00 0.06 0.06 85 1007.8
20260506040037 60 178 2.0 5.0 0.00 0.06 0.06 87 1007.6
20260506035533 62 185 3.0 7.0 0.00 0.06 0.06 79 1007.4
20260506035026 61 156 3.0 7.0 0.00 0.06 0.06 84 1007.6
20260506034524 61 175 1.0 5.0 0.00 0.06 0.06 84 1007.5
20260506034041 63 142 2.0 6.0 0.00 0.06 0.06 80 1007.5
20260506033523 62 122 3.0 6.0 0.00 0.06 0.06 84 1007.6
20260506033039 60 183 2.0 5.0 0.00 0.06 0.06 88 1007.5
20260506032544 60 207 2.0 4.0 0.00 0.06 0.06 88 1007.6
20260506032040 61 140 2.0 4.0 0.00 0.06 0.06 86 1007.6
20260506031543 60 141 1.0 4.0 0.00 0.06 0.06 87 1007.5
20260506031035 60 141 1.0 5.0 0.00 0.06 0.06 87 1007.6
20260506030534 59 200 2.0 5.0 0.00 0.06 0.06 89 1007.7
20260506030035 59 173 3.0 4.0 0.00 0.06 0.06 89 1007.6
20260506025527 58 170 2.0 4.0 0.00 0.06 0.06 90 1007.6
20260506025033 58 174 1.0 3.0 0.00 0.06 0.06 91 1007.6
20260506024530 58 187 2.0 5.0 0.00 0.06 0.06 91 1007.6
20260506024037 58 200 2.0 5.0 0.00 0.06 0.06 91 1007.5
20260506023537 58 182 2.0 5.0 0.00 0.06 0.06 90 1007.4
20260506023025 58 146 2.0 5.0 0.00 0.06 0.06 90 1007.6
20260506022553 58 180 1.0 4.0 0.00 0.06 0.06 91 1007.6
20260506022030 58 217 0.0 1.0 0.00 0.06 0.06 91 1007.7
20260506021529 58 217 0.0 3.0 0.00 0.06 0.06 91 1007.5
20260506021022 58 213 1.0 5.0 0.00 0.06 0.06 91 1007.5
20260506020548 58 177 0.0 3.0 0.00 0.06 0.06 91 1007.4
20260506020032 60 167 1.0 3.0 0.00 0.06 0.06 88 1007.2
20260506015524 60 134 0.0 7.0 0.00 0.06 0.06 89 1007.2
20260506015023 62 140 2.0 9.0 0.00 0.06 0.06 83 1007.4
20260506014537 62 161 3.0 9.0 0.00 0.06 0.06 83 1007.6
20260506014039 61 190 3.0 8.0 0.00 0.06 0.06 86 1007.7
20260506013550 59 173 3.0 5.0 0.00 0.06 0.06 89 1007.7
20260506013100 59 149 1.0 5.0 0.00 0.06 0.06 90 1007.6
20260506012526 60 171 2.0 5.0 0.00 0.06 0.06 86 1007.5
20260506012027 59 159 0.0 2.0 0.00 0.06 0.06 91 1007.6
20260506011544 59 171 0.0 0.0 0.00 0.06 0.06 91 1007.7
20260506011026 59 173 0.0 0.0 0.00 0.06 0.06 92 1007.5
20260506010531 59 173 0.0 0.0 0.00 0.06 0.06 91 1007.5
20260506010041 59 169 0.0 0.0 0.00 0.06 0.06 91 1007.4
20260506005531 59 169 0.0 0.0 0.00 0.06 0.06 90 1007.3
20260506005042 59 169 0.0 0.0 0.00 0.06 0.06 91 1007.4
20260506004533 59 169 0.0 1.0 0.00 0.06 0.06 92 1007.5
20260506004053 59 168 0.0 4.0 0.00 0.06 0.06 91 1007.5
20260506003527 59 168 1.0 4.0 0.00 0.06 0.06 91 1007.5
20260506003049 59 172 3.0 4.0 0.00 0.06 0.06 91 1007.5
20260506002525 59 193 0.0 0.0 0.00 0.06 0.06 92 1007.1
20260506002040 59 193 0.0 0.0 0.00 0.06 0.06 92 1007.0
20260506001523 59 193 0.0 0.0 0.01 0.06 0.06 92 1006.9
20260506001034 59 193 0.0 0.0 0.02 0.06 0.06 92 1006.9
20260506000551 60 192 0.0 0.0 0.03 0.06 0.06 91 1006.8